Location: Brede
(50.9167°N, 0.6000°E)
Time: 18:32:04
(UTC+00:00)

Meteor 1-12 Rocket - Pass Details

Date: 08 August 2020
Orbit: 854 x 927 km, 81.2° (Epoch: 23 September)

Event Time Altitude Azimuth Distance (km) Brightness Sun altitude
Exits shadow 01:11:36 42° 190° (S) 1,285 4.6 -21.4°
Maximum altitude 01:13:47 89° 105° (ESE) 928 4.3 -21.3°
Drops below altitude 10° 01:19:51 10° 13° (NNE) 2,640 7.9 -21.0°
Sets 01:22:21 0° 13° (NNE) 3,589 9.0 -20.8°
